Weather History for Windom, MN

Change the Weather History Date:

Monday, November 29, 2010

  Actual Average Record
Temperature  
Mean Temperature 31 °F -  
Max Temperature 39 °F 34 °F 62 °F (1973)
Min Temperature 23 °F 16 °F -8 °F (1964)
Degree Days  
Heating Degree Days 34    
Moisture  
Dew Point 30 °F    
Average Humidity 84    
Maximum Humidity 100    
Minimum Humidity 70    
Precipitation  
Precipitation 0.08 in - - ()
Sea Level Pressure  
Sea Level Pressure 29.55 in    
Wind  
Wind Speed 15 mph (SSE)    
Max Wind Speed 25 mph    
Max Gust Speed 31 mph    
Visibility 8 miles    
Events Rain , Snow , Thunderstorm    
Averages and records for this station are not official NWS values.
T = Trace of Precipitation, MM = Missing Value Source: NWS Daily Summary

Daily Weather History Graph

Daily Weather History Graph

Search for Another Location

Airport:

Trip Planner

Search our weather history database for the weather conditions in past years. The results will help you decide how hot, cold, wet, or windy it might be!

Date:

Astronomy

Nov. 29, 2010 Rise Set
Actual Time 7:32 AM CST 4:44 PM CST
Civil Twilight 7:00 AM CST 5:16 PM CST
Nautical Twilight 6:24 AM CST 5:52 PM CST
Astronomical Twilight 5:49 AM CST 6:27 PM CST
Moon 12:27 AM CST (11/29) 12:57 PM CST (11/29)
Length of Visible Light 10h 16m
Length of Day
9h 12m
Last Quarter, 40% of the Moon is Illuminated
Nov 29
Last Quarter
Dec 5
New
Dec 13
First Quarter
Dec 21
Full
Dec 27
Last Quarter

Hourly Weather History & Observations

Time (CST) Temp. Windchill Dew Point Humidity Pressure Visibility Wind Dir Wind Speed Gust Speed Precip Events Conditions
12:13 AM 37.4 °F 28.5 °F 28.4 °F 70% 29.58 in 10.0 mi SE 15.0 mph 19.6 mph N/A   Clear
12:33 AM 37.4 °F 28.2 °F 28.4 °F 70% 29.57 in 10.0 mi SE 16.1 mph - N/A   Clear
12:53 AM 37.4 °F 28.5 °F 28.4 °F 70% 29.57 in 10.0 mi SE 15.0 mph - N/A   Clear
1:13 AM 37.4 °F 28.5 °F 28.4 °F 70% 29.56 in 10.0 mi SE 15.0 mph 19.6 mph N/A   Scattered Clouds
1:53 AM 37.4 °F 29.3 °F 30.2 °F 75% 29.56 in 10.0 mi SE 12.7 mph 19.6 mph N/A   Overcast
2:13 AM 37.4 °F 28.5 °F 30.2 °F 75% 29.56 in 10.0 mi SE 15.0 mph 19.6 mph N/A   Mostly Cloudy
2:33 AM 37.4 °F 28.9 °F 30.2 °F 75% 29.56 in 10.0 mi SE 13.8 mph 21.9 mph N/A   Clear
2:53 AM 37.4 °F 28.5 °F 30.2 °F 75% 29.55 in 10.0 mi SE 15.0 mph 19.6 mph N/A   Clear
3:13 AM 37.4 °F 28.2 °F 30.2 °F 75% 29.55 in 10.0 mi SE 16.1 mph 19.6 mph N/A   Clear
3:33 AM 37.4 °F 28.9 °F 30.2 °F 75% 29.54 in 10.0 mi SE 13.8 mph 19.6 mph N/A   Scattered Clouds
3:51 AM 37.4 °F 28.5 °F 30.2 °F 75% 29.54 in 10.0 mi SE 15.0 mph 20.7 mph N/A   Scattered Clouds
4:13 AM 37.4 °F 28.2 °F 30.2 °F 75% 29.54 in 10.0 mi SSE 16.1 mph - N/A   Scattered Clouds
4:33 AM 37.4 °F 27.8 °F 30.2 °F 75% 29.53 in 10.0 mi SSE 17.3 mph - N/A   Scattered Clouds
4:53 AM 39.2 °F 29.6 °F 30.2 °F 70% 29.53 in 10.0 mi SSE 19.6 mph 25.3 mph N/A   Scattered Clouds
5:33 AM 39.2 °F 30.2 °F 30.2 °F 70% 29.53 in 10.0 mi SSE 17.3 mph 21.9 mph N/A   Overcast
5:53 AM 39.2 °F 29.6 °F 30.2 °F 70% 29.52 in 10.0 mi SSE 19.6 mph 25.3 mph N/A   Overcast
6:13 AM 37.4 °F 27.5 °F 30.2 °F 75% 29.53 in 10.0 mi SSE 18.4 mph 21.9 mph N/A   Overcast
6:33 AM 37.4 °F 27.5 °F 30.2 °F 75% 29.53 in 10.0 mi SSE 18.4 mph - N/A   Mostly Cloudy
6:53 AM 37.4 °F 27.8 °F 30.2 °F 75% 29.54 in 10.0 mi SSE 17.3 mph 24.2 mph N/A   Overcast
7:13 AM 37.4 °F 27.5 °F 30.2 °F 75% 29.54 in 10.0 mi SSE 18.4 mph - N/A   Overcast
7:53 AM 37.4 °F 27.8 °F 32.0 °F 81% 29.56 in 10.0 mi SSE 17.3 mph 23.0 mph N/A   Overcast
8:13 AM 37.4 °F 28.5 °F 32.0 °F 81% 29.56 in 10.0 mi SSE 15.0 mph - N/A   Overcast
8:33 AM 37.4 °F 28.9 °F 32.0 °F 81% 29.57 in 10.0 mi SSE 13.8 mph - N/A   Overcast
8:53 AM 37.4 °F 29.3 °F 32.0 °F 81% 29.57 in 10.0 mi SSE 12.7 mph - N/A   Overcast
9:13 AM 37.4 °F 29.8 °F 32.0 °F 81% 29.57 in 10.0 mi SSE 11.5 mph - N/A   Overcast
9:53 AM 37.4 °F 29.3 °F 33.8 °F 87% 29.58 in 10.0 mi SSE 12.7 mph - N/A   Overcast
10:13 AM 37.4 °F 28.9 °F 33.8 °F 87% 29.58 in 10.0 mi SSE 13.8 mph - N/A   Overcast
10:33 AM 37.4 °F 29.8 °F 35.6 °F 93% 29.57 in 10.0 mi SSE 11.5 mph - N/A   Light Drizzle
10:53 AM 37.4 °F 29.8 °F 35.6 °F 93% 29.56 in 10.0 mi SSE 11.5 mph - N/A   Overcast
11:13 AM 37.4 °F 30.3 °F 35.6 °F 93% 29.55 in 10.0 mi SSE 10.4 mph - N/A   Overcast
11:33 AM 37.4 °F 31.4 °F 35.6 °F 93% 29.54 in 10.0 mi SSE 8.1 mph - N/A   Overcast
11:53 AM 37.4 °F 32.1 °F 35.6 °F 93% 29.54 in 10.0 mi SSE 6.9 mph - N/A   Overcast
12:13 PM 37.4 °F 32.1 °F 35.6 °F 93% 29.53 in 10.0 mi SE 6.9 mph - N/A   Light Drizzle
12:33 PM 37.4 °F 32.1 °F 35.6 °F 93% 29.53 in 10.0 mi SSE 6.9 mph - N/A   Overcast
12:53 PM 37.4 °F - 35.6 °F 93% 29.52 in 10.0 mi Calm Calm - N/A   Overcast
1:13 PM 37.4 °F - 35.6 °F 93% 29.52 in 10.0 mi Calm Calm - N/A   Unknown
1:33 PM 37.4 °F 33.8 °F 35.6 °F 93% 29.52 in 10.0 mi SW 4.6 mph - N/A Thunderstorm Unknown
1:53 PM 37.4 °F 30.3 °F 35.6 °F 93% 29.53 in 2.5 mi NNW 10.4 mph 16.1 mph N/A Rain Rain
2:13 PM 30.2 °F 20.2 °F 30.2 °F 100% 29.54 in 1.2 mi NNW 12.7 mph - 0.01 in Rain Light Freezing Rain
2:33 PM 28.4 °F 18.0 °F 28.4 °F 100% 29.54 in 1.2 mi NW 12.7 mph - 0.01 in Snow Light Snow
2:55 PM 28.4 °F 16.2 °F 26.6 °F 93% 29.55 in 1.2 mi NW 17.3 mph - 0.02 in Snow Light Snow
3:13 PM 26.6 °F 12.7 °F 26.6 °F 100% - 0.2 mi NNW 20.7 mph - 0.01 in Snow Snow
3:55 PM 26.6 °F 12.7 °F 24.8 °F 93% 29.56 in 0.5 mi NW 20.7 mph 26.5 mph 0.04 in Snow Snow
4:13 PM 24.8 °F 9.0 °F 24.8 °F 100% 29.56 in 0.2 mi NW 25.3 mph 29.9 mph N/A Snow Snow
4:33 PM 24.8 °F 10.0 °F 24.8 °F 100% 29.57 in 1.0 mi NNW 21.9 mph 26.5 mph N/A Snow Light Snow
4:55 PM 24.8 °F 9.6 °F 24.8 °F 100% 29.58 in 0.5 mi NW 23.0 mph 31.1 mph 0.01 in Snow Snow
5:13 PM 24.8 °F 10.3 °F 23.0 °F 93% 29.58 in 1.0 mi NW 20.7 mph 27.6 mph 0.01 in Snow Snow
5:33 PM 24.8 °F 10.7 °F 21.2 °F 86% 29.60 in 1.0 mi NW 19.6 mph 27.6 mph 0.01 in Snow Snow
5:55 PM 23.0 °F 8.7 °F 21.2 °F 93% 29.60 in 1.5 mi NW 18.4 mph - 0.01 in Snow Light Snow
6:13 PM 23.0 °F 8.0 °F 21.2 °F 93% 29.61 in 2.0 mi NW 20.7 mph 27.6 mph N/A Snow Light Snow
6:33 PM 23.0 °F 6.6 °F 21.2 °F 93% 29.59 in 1.5 mi NW 25.3 mph 29.9 mph N/A Snow Light Snow
6:53 PM 23.0 °F 7.6 °F 21.2 °F 93% 29.60 in 1.5 mi NW 21.9 mph - N/A Snow Light Snow
7:13 PM 23.0 °F 6.9 °F 21.2 °F 93% 29.60 in 2.0 mi WNW 24.2 mph 32.2 mph N/A Snow Light Snow
7:33 PM 23.0 °F 6.6 °F 21.2 °F 93% 29.60 in 2.5 mi WNW 25.3 mph 29.9 mph N/A   Overcast
7:53 PM 21.2 °F 5.2 °F 21.2 °F 100% 29.61 in 4.0 mi WNW 21.9 mph 28.8 mph N/A   Overcast
8:13 PM 21.2 °F 5.6 °F 21.2 °F 100% 29.62 in 2.0 mi WNW 20.7 mph 34.5 mph N/A Snow Light Snow
8:33 PM 21.2 °F 4.9 °F 19.4 °F 93% 29.61 in 3.0 mi WNW 23.0 mph 29.9 mph N/A   Overcast
9:13 PM 21.2 °F 5.2 °F 19.4 °F 93% 29.63 in 2.0 mi WNW 21.9 mph 32.2 mph N/A Snow Light Snow
9:33 PM 21.2 °F 5.2 °F 19.4 °F 93% 29.63 in 2.0 mi WNW 21.9 mph 27.6 mph N/A Snow Light Snow
9:53 PM 21.2 °F 4.9 °F 19.4 °F 93% 29.63 in 1.8 mi WNW 23.0 mph 28.8 mph N/A Snow Light Snow
10:13 PM 21.2 °F 5.2 °F 19.4 °F 93% 29.63 in 2.0 mi WNW 21.9 mph 27.6 mph N/A Snow Light Snow
10:33 PM 21.2 °F 6.0 °F 19.4 °F 93% 29.63 in 1.0 mi WNW 19.6 mph 32.2 mph N/A Snow Light Snow
10:53 PM 19.4 °F 2.1 °F 19.4 °F 100% 29.64 in 1.0 mi WNW 24.2 mph 34.5 mph N/A Snow Light Snow
11:13 PM 19.4 °F 3.2 °F 19.4 °F 100% 29.64 in 1.0 mi WNW 20.7 mph 28.8 mph N/A Snow Light Snow
11:33 PM 19.4 °F 2.1 °F 19.4 °F 100% 29.64 in 1.0 mi NW 24.2 mph 33.4 mph N/A Snow Light Snow
11:53 PM 19.4 °F 1.8 °F 19.4 °F 100% 29.64 in 1.2 mi WNW 25.3 mph - N/A Snow Light Snow